This demonstration page uses our WeatherBlox Daily Observations layout. Learn more.

39.92423, -83.80882

Hourly Observations for August 18, 2018

Temp ( °F °C ) Dew Point ( °F °C ) Humidity (%) Winds ( mph kmh ) Pressure ( in mb ) Visibility ( mi km ) Precip ( " mm )
12:56 am 00:56 Clear 71 21.7 71 21.7 100 100 SSW 5 7 29.98 1015 9 14.48406 0 0.0254
1:56 am 01:56 Mostly Clear with Mist and Fog 70 21.1 70 21.1 100 100 Calm 29.98 1015 6 9.65604 0 0
2:56 am 02:56 Clear 71 21.7 71 21.7 100 100 W 3 6 29.97 1015 10 16.0934 0 0.0254
3:56 am 03:56 Clear 70 21.1 70 21.1 100 100 WSW 3 6 29.96 1015 7 11.26538 0 0
4:56 am 04:56 Mostly Clear with Mist and Fog 69 20.6 69 20.6 100 100 SSW 3 6 29.96 1015 5 8.0467 0 0
5:56 am 05:56 Mostly Clear with Mist and Fog 70 21.1 70 21.1 100 100 NW 3 6 29.96 1015 5 8.0467 0 0
6:29 am 06:29 Mostly Clear with Mist and Fog 68 20 68 20 100 100 SSW 3 6 29.94 1014 2 3.21868 0 0
6:56 am 06:56 Partly Cloudy with Mist and Fog 69 20.6 69 20.6 100 100 W 3 6 29.97 1015 1.25 2.011675 0 0
7:31 am 07:31 Partly Cloudy with Mist and Fog 70 21 70 21 100 100 Calm 29.97 1015 2.5 4.02335 0 0
7:56 am 07:56 Partly Cloudy with Mist and Fog 70 21.1 70 21.1 100 100 Calm 29.98 1015 2.5 4.02335 0 0
8:07 am 08:07 Partly Cloudy with Mist and Fog 70 21 70 21 100 100 NW 5 7 29.97 1015 4 6.43736 0 0
8:56 am 08:56 Sunny 71 21.7 69 20.6 94 94 NNW 7 11 29.98 1015 10 16.0934 0 0
9:56 am 09:56 Sunny 74 23.3 69 20.6 85 85 Calm 29.98 1015 10 16.0934 0 0
10:56 am 10:56 Sunny 75 23.9 70 21.1 84 84 N 7 11 29.98 1015 10 16.0934 0 0
11:56 am 11:56 Sunny 77 25 69 20.6 77 77 VRB 3 6 29.98 1015 10 16.0934 0 0
12:56 pm 12:56 Sunny 79 26.1 69 20.6 72 72 NNW 7 11 29.96 1014 10 16.0934 0 0
1:56 pm 13:56 Sunny 79 26.1 68 20 69 69 VRB 5 7 29.94 1014 10 16.0934 0 0
2:56 pm 14:56 Sunny 80 26.7 68 20 67 67 NNE 7 11 29.93 1013 10 16.0934 0 0
3:56 pm 15:56 Sunny 79 26.1 69 20.6 72 72 NE 6 9 29.92 1013 10 16.0934 0 0
4:56 pm 16:56 Sunny 80 26.7 69 20.6 69 69 NNE 7 11 29.91 1013 10 16.0934 0 0
5:56 pm 17:56 Sunny 77 25 69 20.6 77 77 N 14 22 29.91 1013 10 16.0934 0 0.0254
6:56 pm 18:56 Sunny 78 25.6 71 21.7 79 79 N 7 11 29.91 1013 10 16.0934 0 0.0254
7:56 pm 19:56 Sunny 75 23.9 70 21.1 84 84 N 6 9 29.93 1013 10 16.0934 0 0
8:56 pm 20:56 Clear 72 22.2 69 20.6 91 91 E 7 11 29.93 1013 10 16.0934 0 0
9:56 pm 21:56 Clear 70 21.1 70 21.1 100 100 Calm 29.94 1014 10 16.0934 0 0
10:56 pm 22:56 Clear 70 21.1 69 20.6 97 97 NNW 3 6 29.95 1014 10 16.0934 0 0
11:56 pm 23:56 Clear 69 20.6 68 20 96 96 NNE 5 7 29.95 1014 10 16.0934 0 0

Powered by AerisWeather